This is the latest recevied weather packets stored in our database for station/object KO4DYK. If no packets are shown the sender has not sent any weather packets the latest 10 day(s).
| Time | Temp. | Humidity | Pressure | Rain* | Wind** | Luminosity | Snow |
|---|---|---|---|---|---|---|---|
| 1777912846 | 25.56° C | 50% | 1017.8 hPa | 0 mm | - | 811 W/m² | - |
| 1777912543 | 25.56° C | 50% | 1018 hPa | 0 mm | - | 610 W/m² | - |
| 1777912239 | 25.56° C | 50% | 1017.9 hPa | 0 mm | - | 790 W/m² | - |
| 1777911935 | 25.56° C | 51% | 1018 hPa | 0 mm | - | 768 W/m² | - |
| 1777911632 | 25.56° C | 51% | 1018.1 hPa | 0 mm | - | 775 W/m² | - |
| 1777911328 | 25.56° C | 51% | 1018.2 hPa | 0 mm | - | 769 W/m² | - |
| 1777911026 | 26.11° C | 51% | 1018.2 hPa | 0 mm | - | 753 W/m² | - |
| 1777910723 | 25.56° C | 54% | 1018.3 hPa | 0 mm | - | 770 W/m² | - |
| 1777910419 | 25° C | 53% | 1018.3 hPa | 0 mm | - | 749 W/m² | - |
| 1777910116 | 24.44° C | 55% | 1018.4 hPa | 0 mm | - | 667 W/m² | - |
| 1777909814 | 25° C | 54% | 1018.4 hPa | 0 mm | - | 672 W/m² | - |
| 1777909510 | 25° C | 55% | 1018.3 hPa | 0 mm | - | 741 W/m² | - |
| 1777909208 | 23.89° C | 58% | 1018.6 hPa | 0 mm | - | 685 W/m² | - |
| 1777908905 | 23.89° C | 58% | 1018.5 hPa | 0 mm | - | 491 W/m² | - |
| 1777908603 | 23.33° C | 59% | 1018.5 hPa | 0 mm | - | 742 W/m² | - |
| 1777908299 | 23.33° C | 60% | 1018.7 hPa | 0 mm | - | 635 W/m² | - |
| 1777907995 | 24.44° C | 59% | 1018.6 hPa | 0 mm | - | 652 W/m² | - |
| 1777907691 | 23.89° C | 60% | 1018.6 hPa | 0 mm | - | 744 W/m² | - |
| 1777907387 | 22.78° C | 62% | 1018.6 hPa | 0 mm | - | 711 W/m² | - |
| 1777907083 | 22.78° C | 62% | 1018.6 hPa | 0 mm | - | 713 W/m² | - |
| 1777906781 | 22.22° C | 62% | 1018.6 hPa | 0 mm | - | 620 W/m² | - |
| 1777906478 | 21.67° C | 64% | 1018.6 hPa | 0 mm | - | 637 W/m² | - |
| 1777906174 | 21.67° C | 65% | 1018.7 hPa | 0 mm | - | 551 W/m² | - |
| 1777905871 | 21.67° C | 65% | 1018.7 hPa | 0 mm | - | 606 W/m² | - |
| 1777905568 | 21.67° C | 65% | 1018.8 hPa | 0 mm | - | 399 W/m² | - |
* Rain latest hour (hover to see other rain measurements)
** Current wind speed in m/s (hover to see current wind gust speed)